User: anonymous   Login
Location: Pony
(45.6596°N, 111.8933°W)
Time: 13:28:02
(UTC+00:00)
Language:

PSLV DEB - Orbit

View from above orbital plane
View from above orbital plane
View from above satellite
View from above satellite

Ground track
Ground track

The orbit data is extracted from the following two-line orbital elements,

1 34221U 01049PR  22269.12170335  .00001480  00000-0  11448-3 0  9993
2 34221  98.5202  45.6060 0049676 350.7142   9.3157 15.02428190110778
Epoch (UTC): 26 September 2022 02:55:15
Eccentricity: 0.0049676
inclination: 98.5202°
perigee height: 525 km
apogee height: 594 km
right ascension of ascending node: 45.6060°
argument of perigee: 350.7142°
revolutions per day: 15.02428190
mean anomaly at epoch: 9.3157°
orbit number at epoch: 11077

The dashed part of the orbit path shows where the satellite is in the earth's shadow,  

DLR